Regional Weather Roundup
Issued by NWS

Home | Current Version | Previous Version | Text Only | Print | Product List | Glossary On
Versions: 1 2 3 4 5 6 7 8 9 10 11 12 13 14 15 16 17 18 19 20 21 22 23 24 25 26 27 28 29 30 31 32 33 34 35 36 37 38 39 40 41 42 43 44 45 46 47 48 49 50
000
ASUS44 KOUN 270310
RWROK

WEATHER ROUNDUP FOR OKLAHOMA
NATIONAL WEATHER SERVICE NORMAN OK
1000 PM CDT WED JUL 26 2017

NOTE: "FAIR" INDICATES FEW OR NO CLOUDS BELOW 12,000 FEET WITH NO
      SIGNIFICANT WEATHER AND/OR OBSTRUCTIONS TO VISIBILITY.

OKZ001>007-009>012-014-015-017-270400-
NORTHWEST OKLAHOMA AND THE PANHANDLE

CITY           SKY/WX    TMP DP  RH WIND       PRES   REMARKS
GAGE           PTCLDY    90  63  40 S15       29.97R HX  91
GUYMON         CLOUDY    79  67  66 SE15      30.04S
$$

OKZ016-021>023-033>039-044-045-270400-
SOUTHWEST OKLAHOMA

CITY           SKY/WX    TMP DP  RH WIND       PRES   REMARKS
LAWTON/REGL    CLOUDY    89  70  53 SE15      29.94S HX  94
LAWTON/FT SILL MOCLDY    87  73  63 S13G21    29.94R HX  94
FREDERICK      PTCLDY    89  68  49 SE12      29.91R HX  93
CLINTON        PTCLDY    88  68  51 S17       29.98R HX  91
HOBART         CLOUDY    89  70  53 S21       29.96R HX  94
ALTUS AFB      CLOUDY    87  65  47 E8        29.94R
$$

OKZ018>020-024>031-270400-
CENTRAL OKLAHOMA

CITY           SKY/WX    TMP DP  RH WIND       PRES   REMARKS
OKLAHOMA CITY  MOCLDY    86  69  56 S13       29.96S HX  90
OKC/WILEY POST PTCLDY    89  70  53 S17G24    29.95S HX  94
OKC/TINKER AFB MOCLDY    86  71  59 S12       29.96S HX  91
STILLWATER     CLEAR     88  72  58 S15       29.93S HX  94
GUTHRIE        PTCLDY    88  70  55 S8        29.94R HX  93
$$

OKZ008-013-054>072-270400-
NORTHEAST OKLAHOMA

CITY           SKY/WX    TMP DP  RH WIND       PRES   REMARKS
TULSA          CLOUDY    89  74  60 S16       29.93R HX  98
TULSA/JONES    MOCLDY    88  73  61 S8        29.95R HX  95
PONCA CITY     PTCLDY    90  71  53 S14G22    29.91R HX  96
BARTLESVILLE   MOCLDY    88  72  58 S6        29.94R HX  94
MUSKOGEE       CLOUDY    82  75  79 S7        29.97S
$$

OKZ032-040>043-046>053-073>077-270400-
SOUTH CENTRAL/SOUTHEAST OKLAHOMA

CITY           SKY/WX    TMP DP  RH WIND       PRES   REMARKS
ARDMORE/DWNTWN CLOUDY    86  66  51 S5        29.98S
MCALESTER      PTCLDY    85  75  72 S5        29.99S HX  93
$$





USA.gov is the U.S. government's official web portal to all federal, state and local government web resources and services.